Tracking 18942 objects as of 17-Jan-2018
HD Live streaming from Space Station
objects crossing your sky now

FLOCK 3P 2

Track FLOCK 3P 2 now!
10-day predictions
FLOCK 3P 2 is classified as:


NORAD ID: 41966
Int'l Code: 2017-008U
Perigee: 495.2 km
Apogee: 507.9 km
Inclination: 97.5 °
Period: 94.5 minutes
Semi major axis: 6872 km
RCS: Unknown
Launch date: February 15, 2017
Source: United States (US)
Launch site: SRIHARIKOTA (SRI)
aabbcc
Your satellite tracking list
Your tracking list is empty




NASA's NSSDC Master Catalog

Two Line Element Set (TLE):
1 41966U 17008U   18016.88875103 +.00003020 +00000-0 +12834-3 0  9994
2 41966 097.4705 082.4969 0009182 153.2968 206.8744 15.23791955050904
Source of the keplerian elements: AFSPC